Regional Weather Roundup
Issued by NWS

Home | Current Version | Previous Version | Text Only | Print | Product List | Glossary On
Versions: 1 2 3 4 5 6 7 8 9 10 11 12 13 14 15 16 17 18 19 20 21 22 23 24 25 26 27 28 29 30 31 32 33 34 35 36 37 38 39 40 41 42 43 44 45 46 47 48 49 50
516
ASUS42 KKEY 310810
RWRKEY

FLORIDA REGIONAL WEATHER ROUNDUP FOR THE FLORIDA KEYS
NATIONAL WEATHER SERVICE KEY WEST FLORIDA
400 AM EDT TUE MAY 31 2016

...SOUTH FLORIDA AND THE KEYS...

CITY           SKY/WX    TMP DP  RH WIND       PRES   REMARKS
FORT MYERS     CLEAR     71  69  93 CALM      29.92F
SW REGIONAL AP   N/A     70  68  93 CALM      29.92F
NAPLES         CLEAR     72  70  93 E5        29.91F
MIAMI          PTCLDY    75  72  90 N5        29.92F
WEST KENDALL   PTCLDY    74  72  93 CALM      29.92F
HOMESTEAD      CLEAR     75  72  91 NW2       29.91F
MARATHON       PTCLDY    80  71  74 VRB6      29.90F
BOCA CHICA NAS PTCLDY    79  71  76 E6        29.91S
KEY WEST INTL  PTCLDY    81  72  74 E8        29.91F

...INTERNATIONAL WEATHER...

CITY           SKY/WX    TMP DP  RH WIND       PRES   REMARKS
NASSAU BAHAMAS NOT AVBL
CANCUN MEXICO  MOCLDY    81  73  78 E3        29.88F
COZUMEL MEXICO PTCLDY    72  72 100 CALM      29.88F

ADJACENT COASTAL WATERS...

STATION/POSITION TIME  SKY/WX   TEMP    WIND        PRES    WAVE
                                AIR SEA DIR/SP/G            HT/PER
                 (UTC)          (F)     (DEG/KT/KT) (MB)    (FT/S)
PULASKI SHOAL LI 0800            81     110/  4/  5 1012.7F
SAND KEY         0750            81     140/  8/ 10 1013.2F
SOMBRERO KEY     NOT AVBL
LONG KEY         0800            80 87  150/ 10/ 12 1012.9F
MOLASSES REEF    0600            81 83   90/  6/  7 1014.1F
FOWEY ROCKS      0800            80 83  120/  4/  4 1013.5F

$$




USA.gov is the U.S. government's official web portal to all federal, state and local government web resources and services.